| time (UTC) | temp F | wind direction | speed MPH | gust MPH | rain 1hr in | rain 24hr in | rain mn in | humidity % | barometer mb |
| 20260504184516 | 58 | 306 | 0.0 | 1.0 | 0.00 | 0.00 | 0.00 | 66 | 1013.5 |
| 20260504183021 | 58 | 309 | 0.0 | 0.0 | 0.00 | 0.00 | 0.00 | 71 | 1013.4 |
| 20260504181514 | 58 | 191 | 0.0 | 0.0 | 0.00 | 0.00 | 0.00 | 80 | 1013.3 |
| 20260504180013 | 57 | 146 | 0.0 | 0.0 | 0.00 | 0.00 | 0.00 | 80 | 1013.3 |
| 20260504174512 | 57 | 158 | 0.0 | 0.0 | 0.00 | 0.00 | 0.00 | 80 | 1013.4 |
| 20260504173022 | 58 | 186 | 0.0 | 0.0 | 0.00 | 0.00 | 0.00 | 79 | 1013.5 |
| 20260504171517 | 58 | 158 | 0.0 | 0.0 | 0.00 | 0.00 | 0.00 | 79 | 1013.5 |
| 20260504140111 | 60 | 190 | 0.0 | 0.0 | 0.00 | 0.00 | 0.00 | 73 | 1014.2 |
| 20260504081506 | 47 | 9 | 0.0 | 0.0 | 0.00 | 0.00 | 0.00 | 96 | 1015.5 |
| 20260504044557 | 44 | 13 | 0.0 | 0.0 | 0.00 | 0.44 | 0.00 | 96 | 1014.6 |
| 20260504043044 | 44 | 13 | 0.0 | 0.0 | 0.00 | 0.44 | 0.00 | 96 | 1014.6 |
| 20260504041542 | 44 | 13 | 0.0 | 0.0 | 0.00 | 0.44 | 0.00 | 96 | 1014.5 |
| 20260504040041 | 44 | 13 | 0.0 | 0.0 | 0.00 | 0.44 | 0.00 | 96 | 1014.5 |
| 20260504034550 | 44 | 13 | 0.0 | 0.0 | 0.00 | 0.57 | 0.00 | 96 | 1014.7 |
| 20260504033051 | 45 | 13 | 0.0 | 0.0 | 0.00 | 0.57 | 0.00 | 96 | 1014.6 |
| 20260504031538 | 45 | 13 | 0.0 | 0.0 | 0.00 | 0.57 | 0.00 | 96 | 1014.6 |
| 20260504030038 | 45 | 13 | 0.0 | 0.0 | 0.00 | 0.57 | 0.00 | 96 | 1014.6 |
| 20260504024544 | 45 | 13 | 0.0 | 0.0 | 0.00 | 0.73 | 0.00 | 96 | 1014.7 |
| 20260504023036 | 45 | 13 | 0.0 | 0.0 | 0.00 | 0.73 | 0.00 | 96 | 1014.6 |
| 20260504021536 | 45 | 13 | 0.0 | 0.0 | 0.00 | 0.73 | 0.00 | 96 | 1014.5 |
| 20260504020035 | 45 | 13 | 0.0 | 0.0 | 0.00 | 0.73 | 0.00 | 96 | 1014.5 |
| 20260504014535 | 45 | 13 | 0.0 | 0.0 | 0.00 | 0.83 | 0.00 | 96 | 1014.5 |
| 20260504013036 | 45 | 13 | 0.0 | 0.0 | 0.00 | 0.83 | 0.00 | 96 | 1014.3 |
| 20260504011530 | 45 | 13 | 0.0 | 0.0 | 0.00 | 0.83 | 0.00 | 96 | 1014.2 |
| 20260504010036 | 45 | 13 | 0.0 | 0.0 | 0.00 | 0.83 | 0.00 | 96 | 1014.0 |
| 20260504004528 | 45 | 13 | 0.0 | 0.0 | 0.00 | 0.89 | 0.00 | 96 | 1014.0 |
| 20260504003027 | 45 | 13 | 0.0 | 0.0 | 0.00 | 0.89 | 0.00 | 96 | 1014.1 |
| 20260504001526 | 45 | 13 | 0.0 | 0.0 | 0.00 | 0.89 | 0.00 | 96 | 1014.1 |
| 20260504000025 | 45 | 13 | 0.0 | 0.0 | 0.00 | 0.89 | 0.00 | 96 | 1014.1 |
| 20260503234525 | 45 | 13 | 0.0 | 0.0 | 0.00 | 0.92 | 0.00 | 96 | 1014.0 |
| 20260503233023 | 45 | 13 | 0.0 | 0.0 | 0.00 | 0.92 | 0.00 | 96 | 1014.0 |
| 20260503231522 | 45 | 13 | 0.0 | 0.0 | 0.00 | 0.92 | 0.00 | 96 | 1013.9 |
| 20260503230021 | 45 | 13 | 0.0 | 0.0 | 0.00 | 0.92 | 0.00 | 96 | 1013.9 |
| 20260503224516 | 45 | 323 | 0.0 | 0.0 | 0.00 | 0.95 | 0.92 | 96 | 1014.0 |
| 20260503223011 | 45 | 15 | 0.0 | 0.0 | 0.00 | 0.95 | 0.92 | 96 | 1014.0 |
| 20260503221507 | 45 | 6 | 0.0 | 2.0 | 0.00 | 0.95 | 0.92 | 96 | 1013.9 |
| 20260503220004 | 45 | 4 | 0.0 | 1.0 | 0.00 | 0.95 | 0.92 | 96 | 1013.9 |
| 20260503214558 | 45 | 316 | 0.0 | 2.0 | 0.00 | 0.95 | 0.92 | 96 | 1013.8 |
| 20260503213053 | 45 | 5 | 0.0 | 2.0 | 0.00 | 0.95 | 0.92 | 96 | 1013.7 |
| 20260503211601 | 45 | 354 | 0.0 | 0.0 | 0.00 | 0.95 | 0.92 | 96 | 1013.5 |
| 20260503210044 | 45 | 15 | 0.0 | 1.0 | 0.00 | 0.95 | 0.92 | 96 | 1013.6 |
| 20260503204540 | 45 | 6 | 0.0 | 3.0 | 0.00 | 0.95 | 0.92 | 96 | 1013.4 |
| 20260503203036 | 45 | 20 | 0.0 | 3.0 | 0.00 | 0.95 | 0.92 | 96 | 1013.4 |
| 20260503201532 | 45 | 13 | 0.0 | 3.0 | 0.00 | 0.95 | 0.92 | 96 | 1013.2 |
| 20260503200031 | 45 | 354 | 0.0 | 4.0 | 0.00 | 0.95 | 0.92 | 96 | 1013.1 |
| 20260503194527 | 45 | 1 | 0.0 | 2.0 | 0.00 | 0.95 | 0.92 | 96 | 1013.0 |
| 20260503193017 | 46 | 350 | 0.0 | 2.0 | 0.00 | 0.95 | 0.92 | 96 | 1012.8 |
| 20260503191515 | 46 | 11 | 0.0 | 3.0 | 0.00 | 0.95 | 0.92 | 96 | 1012.7 |
| 20260503190017 | 46 | 4 | 0.0 | 6.0 | 0.00 | 0.95 | 0.92 | 96 | 1012.6 |